TimeEDT,TemperatureF,Dew PointF,Humidity,Sea Level PressureIn,VisibilityMPH,Wind Direction,Wind SpeedMPH,Gust SpeedMPH,PrecipitationIn,Events,Conditions,WindDirDegrees,DateUTC
12:51 AM,64.0,39.9,41,29.86,10.0,Calm,Calm,-,N/A,,Overcast,0,2013-04-10 04:51:00
1:51 AM,63.0,42.1,46,29.85,10.0,Calm,Calm,-,N/A,,Scattered Clouds,0,2013-04-10 05:51:00
2:51 AM,60.1,44.1,55,29.81,10.0,Calm,Calm,-,N/A,,Clear,0,2013-04-10 06:51:00
3:51 AM,64.0,43.0,46,29.85,10.0,North,10.4,-,N/A,,Partly Cloudy,350,2013-04-10 07:51:00
4:51 AM,57.0,46.0,67,29.88,10.0,North,5.8,-,N/A,,Clear,360,2013-04-10 08:51:00
5:51 AM,55.0,46.0,72,29.88,10.0,Calm,Calm,-,N/A,,Clear,0,2013-04-10 09:51:00
6:51 AM,55.0,46.0,72,29.91,10.0,North,3.5,-,N/A,,Clear,360,2013-04-10 10:51:00
7:51 AM,57.0,46.9,69,29.93,10.0,Calm,Calm,-,N/A,,Partly Cloudy,0,2013-04-10 11:51:00
8:51 AM,57.9,46.9,67,29.94,10.0,Calm,Calm,-,N/A,,Mostly Cloudy,0,2013-04-10 12:51:00
9:51 AM,64.0,46.9,54,29.92,10.0,Calm,Calm,-,N/A,,Partly Cloudy,0,2013-04-10 13:51:00
10:51 AM,68.0,48.9,50,29.92,10.0,Variable,4.6,-,N/A,,Clear,0,2013-04-10 14:51:00
11:51 AM,69.1,48.9,49,29.92,10.0,NE,3.5,-,N/A,,Overcast,40,2013-04-10 15:51:00
12:51 PM,72.0,51.1,48,29.91,10.0,North,6.9,-,N/A,,Clear,360,2013-04-10 16:51:00
1:51 PM,73.9,52.0,46,29.90,10.0,East,6.9,-,N/A,,Clear,90,2013-04-10 17:51:00
2:51 PM,73.9,52.0,46,29.88,10.0,Variable,3.5,17.3,N/A,,Clear,0,2013-04-10 18:51:00
3:51 PM,73.0,52.0,48,29.85,10.0,East,8.1,-,N/A,,Clear,100,2013-04-10 19:51:00
4:51 PM,71.1,50.0,47,29.84,10.0,South,12.7,18.4,N/A,,Clear,170,2013-04-10 20:51:00
5:51 PM,64.0,48.9,58,29.84,10.0,South,12.7,-,0.00,Rain,Light Rain,190,2013-04-10 21:51:00
6:51 PM,62.1,48.0,60,29.89,10.0,Variable,6.9,23.0,0.00,,Scattered Clouds,0,2013-04-10 22:51:00
6:59 PM,60.8,48.2,63,29.96,10.0,WNW,10.4,34.5,N/A,Rain,Light Rain,290,2013-04-10 22:59:00
7:11 PM,60.8,50.0,68,29.90,3.0,SE,3.5,-,0.04,Rain-Thunderstorm,Thunderstorms and Rain,130,2013-04-10 23:11:00
7:51 PM,60.1,55.9,86,29.82,8.0,ESE,12.7,24.2,N/A,Rain,Light Rain,120,2013-04-10 23:51:00
8:51 PM,59.0,55.9,90,29.83,8.0,South,4.6,-,0.01,,Mostly Cloudy,190,2013-04-11 00:51:00
9:51 PM,57.9,55.0,90,29.82,9.0,SW,4.6,-,N/A,,Partly Cloudy,220,2013-04-11 01:51:00
10:20 PM,57.2,55.4,94,29.90,5.0,WNW,11.5,-,0.10,Rain-Thunderstorm,Thunderstorms and Rain,290,2013-04-11 02:20:00
10:51 PM,57.2,57.2,100,29.87,3.0,SSE,5.8,-,N/A,Rain-Thunderstorm,Thunderstorms and Rain,150,2013-04-11 02:51:00
11:51 PM,57.9,55.9,93,29.85,3.0,South,3.5,-,0.01,Rain,Light Rain,190,2013-04-11 03:51:00